When you browse on this site, cookies collect data to enhance your experience and personalize the content and advertising you see.
Visit our Privacy Policy to learn more. By continuing to use the site, you agree to this use of cookies and data.
  • în România
  • Lista ţărilor
  • Pe 7 zile
  • Temperatura apei
  • Hartă satelitară
  • Meteo pe hartă
  • Widget-uri
  • user-avatar
    Intrare

    Meteo pe oră la Arnesano

    Astăzi, 23 Aprilie, Marţi

    Timp Temperatura Precipitaţii Vânt Presiune Umiditate
    00:00 +14°C° 0 mm 10 m/s 756 mmHg 66%
    01:00 +15°C° 0 mm 9 m/s 755 mmHg 68%
    02:00 +14°C° 0 mm 10 m/s 755 mmHg 68%
    03:00 +14°C° 0 mm 10 m/s 754 mmHg 67%
    04:00 +14°C° 0 mm 10 m/s 754 mmHg 67%
    05:00 +14°C° 0 mm 11 m/s 754 mmHg 64%
    06:00 +15°C° 0 mm 12 m/s 754 mmHg 61%
    07:00 +15°C° 0 mm 13 m/s 754 mmHg 59%
    08:00 +17°C° 0 mm 14 m/s 754 mmHg 59%
    09:00 +18°C° 0 mm 14 m/s 754 mmHg 60%
    10:00 +18°C° 0 mm 15 m/s 755 mmHg 60%
    11:00 +18°C° 0 mm 14 m/s 755 mmHg 62%
    12:00 +18°C° 0 mm 14 m/s 755 mmHg 63%
    13:00 +18°C° 0 mm 14 m/s 755 mmHg 64%
    14:00 +18°C° 0 mm 13 m/s 755 mmHg 65%
    15:00 +18°C° 0 mm 13 m/s 755 mmHg 67%
    16:00 +18°C° 0 mm 13 m/s 755 mmHg 69%
    17:00 +17°C° 0 mm 12 m/s 755 mmHg 73%
    18:00 +16°C° 0 mm 11 m/s 756 mmHg 76%
    19:00 +14°C° 0 mm 11 m/s 756 mmHg 80%
    20:00 +14°C° 0 mm 10 m/s 757 mmHg 82%
    21:00 +14°C° 0 mm 10 m/s 757 mmHg 83%
    22:00 +15°C° 0 mm 9 m/s 758 mmHg 85%
    23:00 +15°C° 0 mm 8 m/s 758 mmHg 87%

    Mâine, 24 Aprilie, Miercuri

    Timp Temperatura Precipitaţii Vânt Presiune Umiditate
    00:00 +15°C° 0 mm 8 m/s 758 mmHg 89%
    01:00 +14°C° 0 mm 7 m/s 759 mmHg 90%
    02:00 +14°C° 0 mm 7 m/s 759 mmHg 91%
    03:00 +14°C° 0 mm 6 m/s 759 mmHg 92%
    04:00 +14°C° 0 mm 6 m/s 759 mmHg 93%
    05:00 +15°C° 0 mm 7 m/s 759 mmHg 89%
    06:00 +15°C° 0 mm 7 m/s 759 mmHg 86%
    07:00 +16°C° 0 mm 7 m/s 760 mmHg 82%
    08:00 +17°C° 0 mm 7 m/s 760 mmHg 76%
    09:00 +20°C° 0 mm 7 m/s 760 mmHg 70%
    10:00 +21°C° 0 mm 7 m/s 761 mmHg 64%
    11:00 +21°C° 0 mm 7 m/s 761 mmHg 63%
    12:00 +22°C° 0 mm 7 m/s 761 mmHg 61%
    13:00 +22°C° 0 mm 6 m/s 761 mmHg 59%
    14:00 +22°C° 0 mm 6 m/s 761 mmHg 60%
    15:00 +22°C° 0 mm 6 m/s 761 mmHg 62%
    16:00 +21°C° 0 mm 6 m/s 761 mmHg 63%
    17:00 +20°C° 0 mm 5 m/s 761 mmHg 69%
    18:00 +19°C° 0 mm 5 m/s 761 mmHg 75%
    19:00 +17°C° 0 mm 4 m/s 761 mmHg 81%
    20:00 +17°C° 0 mm 4 m/s 761 mmHg 84%
    21:00 +16°C° 0 mm 3 m/s 762 mmHg 87%
    22:00 +16°C° 0 mm 3 m/s 762 mmHg 90%
    23:00 +16°C° 0 mm 3 m/s 762 mmHg 91%

    Poimâine, 25 Aprilie, Joi

    Timp Temperatura Precipitaţii Vânt Presiune Umiditate
    00:00 +14°C° 0 mm 3 m/s 762 mmHg 91%
    01:00 +14°C° 0 mm 3 m/s 762 mmHg 91%
    02:00 +14°C° 0 mm 3 m/s 762 mmHg 90%
    03:00 +14°C° 0 mm 3 m/s 761 mmHg 89%
    04:00 +14°C° 0 mm 3 m/s 761 mmHg 88%
    05:00 +16°C° 0 mm 3 m/s 761 mmHg 82%
    06:00 +17°C° 0 mm 3 m/s 761 mmHg 77%
    07:00 +18°C° 0 mm 3 m/s 761 mmHg 71%
    08:00 +19°C° 0 mm 3 m/s 761 mmHg 65%
    09:00 +20°C° 0 mm 3 m/s 761 mmHg 58%
    10:00 +22°C° 0 mm 3 m/s 761 mmHg 52%
    11:00 +24°C° 0 mm 3 m/s 761 mmHg 48%
    12:00 +25°C° 0 mm 3 m/s 761 mmHg 43%
    13:00 +26°C° 0 mm 4 m/s 761 mmHg 39%
    14:00 +25°C° 0.1 mm 4 m/s 760 mmHg 41%
    15:00 +25°C° 0.1 mm 4 m/s 760 mmHg 43%
    16:00 +23°C° 0.1 mm 5 m/s 760 mmHg 45%
    17:00 +21°C° 0.4 mm 5 m/s 760 mmHg 53%
    18:00 +20°C° 0.4 mm 4 m/s 760 mmHg 61%
    19:00 +18°C° 0.4 mm 4 m/s 760 mmHg 70%
    20:00 +18°C° 0 mm 4 m/s 760 mmHg 73%
    21:00 +17°C° 0 mm 3 m/s 760 mmHg 77%
    22:00 +17°C° 0 mm 3 m/s 760 mmHg 81%
    23:00 +16°C° 0 mm 3 m/s 760 mmHg 83%

    26 Aprilie, Vineri

    Timp Temperatura Precipitaţii Vânt Presiune Umiditate
    00:00 +16°C° 0 mm 3 m/s 760 mmHg 85%
    01:00 +16°C° 0 mm 3 m/s 760 mmHg 87%
    02:00 +16°C° 0 mm 3 m/s 760 mmHg 88%
    03:00 +14°C° 0 mm 3 m/s 760 mmHg 90%
    04:00 +14°C° 0 mm 3 m/s 760 mmHg 92%
    05:00 +16°C° 0 mm 3 m/s 760 mmHg 88%
    06:00 +17°C° 0 mm 3 m/s 760 mmHg 83%
    07:00 +18°C° 0 mm 3 m/s 760 mmHg 79%
    08:00 +19°C° 0 mm 3 m/s 760 mmHg 72%
    09:00 +21°C° 0 mm 4 m/s 760 mmHg 65%
    10:00 +23°C° 0 mm 4 m/s 761 mmHg 58%
    11:00 +23°C° 0 mm 4 m/s 760 mmHg 55%
    12:00 +25°C° 0 mm 4 m/s 760 mmHg 53%
    13:00 +26°C° 0 mm 5 m/s 760 mmHg 50%
    14:00 +25°C° 0 mm 5 m/s 759 mmHg 51%
    15:00 +25°C° 0 mm 5 m/s 759 mmHg 52%
    16:00 +25°C° 0 mm 5 m/s 759 mmHg 53%
    17:00 +22°C° 0 mm 4 m/s 759 mmHg 58%
    18:00 +20°C° 0 mm 4 m/s 759 mmHg 64%
    19:00 +19°C° 0 mm 4 m/s 759 mmHg 69%
    20:00 +19°C° 0 mm 3 m/s 759 mmHg 70%
    21:00 +18°C° 0 mm 3 m/s 760 mmHg 72%
    22:00 +18°C° 0 mm 3 m/s 760 mmHg 73%
    23:00 +18°C° 0 mm 3 m/s 760 mmHg 73%

    27 Aprilie, Sâmbătă

    Timp Temperatura Precipitaţii Vânt Presiune Umiditate
    00:00 +17°C° 0 mm 2 m/s 760 mmHg 73%
    01:00 +17°C° 0 mm 2 m/s 760 mmHg 74%
    02:00 +17°C° 0 mm 2 m/s 760 mmHg 73%
    03:00 +17°C° 0 mm 2 m/s 760 mmHg 73%
    04:00 +17°C° 0 mm 2 m/s 760 mmHg 72%
    05:00 +18°C° 0 mm 2 m/s 760 mmHg 69%
    06:00 +19°C° 0 mm 2 m/s 761 mmHg 66%
    07:00 +20°C° 0 mm 3 m/s 761 mmHg 62%
    08:00 +20°C° 0 mm 3 m/s 761 mmHg 58%
    09:00 +21°C° 0 mm 2 m/s 761 mmHg 54%
    10:00 +23°C° 0 mm 2 m/s 761 mmHg 50%
    11:00 +24°C° 0 mm 2 m/s 761 mmHg 48%
    12:00 +24°C° 0 mm 2 m/s 761 mmHg 46%
    13:00 +24°C° 0 mm 2 m/s 761 mmHg 44%
    14:00 +24°C° 0 mm 3 m/s 760 mmHg 43%
    15:00 +24°C° 0 mm 3 m/s 760 mmHg 43%
    16:00 +24°C° 0 mm 3 m/s 760 mmHg 42%
    17:00 +23°C° 0 mm 2 m/s 760 mmHg 48%
    18:00 +20°C° 0 mm 2 m/s 760 mmHg 53%
    19:00 +20°C° 0 mm 1 m/s 760 mmHg 59%
    20:00 +18°C° 0 mm 2 m/s 760 mmHg 62%
    21:00 +18°C° 0 mm 3 m/s 761 mmHg 64%
    22:00 +18°C° 0 mm 3 m/s 761 mmHg 67%
    23:00 +17°C° 0 mm 3 m/s 761 mmHg 66%

    28 Aprilie, Duminică

    Timp Temperatura Precipitaţii Vânt Presiune Umiditate
    00:00 +17°C° 0 mm 4 m/s 761 mmHg 66%
    01:00 +17°C° 0 mm 4 m/s 760 mmHg 66%
    02:00 +15°C° 0 mm 5 m/s 760 mmHg 63%
    03:00 +15°C° 0 mm 5 m/s 760 mmHg 60%
    04:00 +14°C° 0 mm 6 m/s 760 mmHg 58%
    05:00 +15°C° 0 mm 6 m/s 760 mmHg 60%
    06:00 +15°C° 0 mm 6 m/s 760 mmHg 62%
    07:00 +16°C° 0 mm 6 m/s 761 mmHg 64%
    08:00 +17°C° 0 mm 6 m/s 761 mmHg 58%
    09:00 +18°C° 0 mm 7 m/s 761 mmHg 52%
    10:00 +20°C° 0 mm 7 m/s 761 mmHg 47%
    11:00 +21°C° 0 mm 7 m/s 760 mmHg 45%
    12:00 +21°C° 0 mm 7 m/s 760 mmHg 43%
    13:00 +22°C° 0 mm 6 m/s 760 mmHg 41%
    14:00 +21°C° 0 mm 7 m/s 760 mmHg 43%
    15:00 +21°C° 0 mm 8 m/s 760 mmHg 44%
    16:00 +19°C° 0 mm 9 m/s 759 mmHg 45%
    17:00 +18°C° 0 mm 8 m/s 759 mmHg 49%
    18:00 +17°C° 0 mm 7 m/s 759 mmHg 53%
    19:00 +16°C° 0 mm 7 m/s 759 mmHg 57%
    20:00 +16°C° 0 mm 7 m/s 760 mmHg 58%
    21:00 +16°C° 0 mm 7 m/s 760 mmHg 60%
    22:00 +16°C° 0 mm 8 m/s 760 mmHg 62%
    23:00 +15°C° 0 mm 8 m/s 760 mmHg 63%
    Arată mai mult